• In Uzbekistan
  • List of Countries
  • For 7 days
  • Water Temperature
  • Satellite Maps
  • Weather Map
  • Weather Widgets
  • user-avatar
    Login

    Hourly Weather Tibissa

    Today, 23 September, Saturday

    Time Temperature Precipitation Wind Pressure Humidity
    00:00 +23°C° 0 mm 2 mps 689 mmHg 45%
    01:00 +23°C° 0 mm 2 mps 689 mmHg 47%
    02:00 +22°C° 0 mm 1 mps 689 mmHg 49%
    03:00 +22°C° 0 mm 1 mps 688 mmHg 50%
    04:00 +22°C° 0 mm 1 mps 688 mmHg 51%
    05:00 +22°C° 0 mm 1 mps 688 mmHg 51%
    06:00 +22°C° 0 mm 1 mps 688 mmHg 51%
    07:00 +22°C° 0 mm 1 mps 689 mmHg 51%
    08:00 +23°C° 0 mm 2 mps 689 mmHg 46%
    09:00 +25°C° 0 mm 3 mps 690 mmHg 40%
    10:00 +26°C° 0 mm 4 mps 690 mmHg 35%
    11:00 +27°C° 0 mm 3 mps 690 mmHg 31%
    12:00 +28°C° 0 mm 3 mps 690 mmHg 28%
    13:00 +29°C° 0 mm 3 mps 690 mmHg 24%
    14:00 +29°C° 0 mm 3 mps 690 mmHg 23%
    15:00 +30°C° 0 mm 3 mps 689 mmHg 22%
    16:00 +30°C° 0 mm 3 mps 689 mmHg 21%
    17:00 +29°C° 0 mm 3 mps 689 mmHg 23%
    18:00 +29°C° 0 mm 3 mps 689 mmHg 25%
    19:00 +28°C° 0 mm 3 mps 689 mmHg 27%
    20:00 +27°C° 0 mm 3 mps 689 mmHg 31%
    21:00 +26°C° 0 mm 3 mps 689 mmHg 36%
    22:00 +25°C° 0 mm 3 mps 689 mmHg 40%
    23:00 +25°C° 0 mm 3 mps 689 mmHg 42%

    Tomorrow, 24 September, Sunday

    Time Temperature Precipitation Wind Pressure Humidity
    00:00 +24°C° 0 mm 3 mps 689 mmHg 44%
    01:00 +24°C° 0 mm 3 mps 688 mmHg 47%
    02:00 +22°C° 0 mm 3 mps 688 mmHg 48%
    03:00 +22°C° 0 mm 3 mps 688 mmHg 49%
    04:00 +21°C° 0 mm 3 mps 688 mmHg 50%
    05:00 +21°C° 0 mm 3 mps 688 mmHg 50%
    06:00 +21°C° 0 mm 3 mps 688 mmHg 50%
    07:00 +21°C° 0 mm 3 mps 688 mmHg 50%
    08:00 +23°C° 0 mm 4 mps 688 mmHg 43%
    09:00 +26°C° 0 mm 5 mps 689 mmHg 37%
    10:00 +27°C° 0 mm 5 mps 689 mmHg 31%
    11:00 +28°C° 0 mm 6 mps 689 mmHg 29%
    12:00 +29°C° 0 mm 6 mps 689 mmHg 27%
    13:00 +30°C° 0 mm 6 mps 689 mmHg 26%
    14:00 +29°C° 0 mm 6 mps 689 mmHg 27%
    15:00 +29°C° 0 mm 6 mps 689 mmHg 29%
    16:00 +29°C° 0 mm 6 mps 688 mmHg 31%
    17:00 +28°C° 0 mm 6 mps 688 mmHg 37%
    18:00 +26°C° 0 mm 5 mps 688 mmHg 43%
    19:00 +25°C° 0 mm 5 mps 688 mmHg 49%
    20:00 +23°C° 0 mm 4 mps 689 mmHg 52%
    21:00 +24°C° 0 mm 3 mps 689 mmHg 55%
    22:00 +23°C° 0 mm 2 mps 689 mmHg 58%
    23:00 +21°C° 0 mm 2 mps 689 mmHg 60%

    Day after tomorrow, 25 September, Monday

    Time Temperature Precipitation Wind Pressure Humidity
    00:00 +21°C° 0 mm 2 mps 689 mmHg 61%
    01:00 +20°C° 0 mm 2 mps 688 mmHg 63%
    02:00 +21°C° 0 mm 1 mps 688 mmHg 65%
    03:00 +20°C° 0 mm 1 mps 688 mmHg 66%
    04:00 +20°C° 0 mm 1 mps 687 mmHg 68%
    05:00 +20°C° 0 mm 1 mps 688 mmHg 68%
    06:00 +20°C° 0 mm 1 mps 688 mmHg 67%
    07:00 +18°C° 0 mm 0 mps 688 mmHg 67%
    08:00 +21°C° 0 mm 1 mps 688 mmHg 60%
    09:00 +22°C° 0 mm 1 mps 689 mmHg 54%
    10:00 +24°C° 0 mm 1 mps 689 mmHg 47%
    11:00 +25°C° 0 mm 1 mps 689 mmHg 42%
    12:00 +26°C° 0 mm 1 mps 689 mmHg 37%
    13:00 +27°C° 0 mm 2 mps 689 mmHg 32%
    14:00 +27°C° 0 mm 2 mps 689 mmHg 30%
    15:00 +28°C° 0 mm 2 mps 688 mmHg 28%
    16:00 +28°C° 0 mm 3 mps 688 mmHg 27%
    17:00 +28°C° 0 mm 3 mps 688 mmHg 27%
    18:00 +27°C° 0 mm 3 mps 688 mmHg 28%
    19:00 +26°C° 0 mm 3 mps 688 mmHg 29%
    20:00 +26°C° 0 mm 3 mps 688 mmHg 32%
    21:00 +25°C° 0 mm 3 mps 689 mmHg 34%
    22:00 +24°C° 0 mm 3 mps 689 mmHg 37%
    23:00 +22°C° 0 mm 3 mps 689 mmHg 43%

    26 September, Tuesday

    Time Temperature Precipitation Wind Pressure Humidity
    00:00 +22°C° 0 mm 3 mps 688 mmHg 48%
    01:00 +21°C° 0 mm 2 mps 688 mmHg 54%
    02:00 +20°C° 0 mm 2 mps 688 mmHg 58%
    03:00 +20°C° 0 mm 2 mps 687 mmHg 62%
    04:00 +20°C° 0 mm 1 mps 687 mmHg 66%
    05:00 +20°C° 0 mm 1 mps 687 mmHg 67%
    06:00 +20°C° 0 mm 1 mps 687 mmHg 68%
    07:00 +20°C° 0 mm 1 mps 687 mmHg 70%
    08:00 +21°C° 0 mm 1 mps 688 mmHg 63%
    09:00 +23°C° 0 mm 1 mps 688 mmHg 56%
    10:00 +24°C° 0 mm 1 mps 689 mmHg 50%
    11:00 +25°C° 0 mm 2 mps 689 mmHg 44%
    12:00 +26°C° 0 mm 2 mps 688 mmHg 39%
    13:00 +27°C° 0 mm 2 mps 688 mmHg 33%
    14:00 +28°C° 0 mm 2 mps 688 mmHg 31%
    15:00 +28°C° 0 mm 2 mps 688 mmHg 30%
    16:00 +28°C° 0 mm 2 mps 687 mmHg 28%
    17:00 +27°C° 0 mm 2 mps 687 mmHg 29%
    18:00 +27°C° 0 mm 3 mps 687 mmHg 31%
    19:00 +26°C° 0 mm 3 mps 688 mmHg 32%
    20:00 +26°C° 0 mm 3 mps 688 mmHg 36%
    21:00 +25°C° 0 mm 2 mps 688 mmHg 39%
    22:00 +24°C° 0 mm 2 mps 688 mmHg 43%
    23:00 +23°C° 0 mm 2 mps 688 mmHg 46%

    27 September, Wednesday

    Time Temperature Precipitation Wind Pressure Humidity
    00:00 +23°C° 0 mm 1 mps 688 mmHg 49%
    01:00 +22°C° 0 mm 1 mps 688 mmHg 51%
    02:00 +21°C° 0 mm 1 mps 687 mmHg 53%
    03:00 +19°C° 0 mm 0 mps 687 mmHg 56%
    04:00 +18°C° 0 mm 0 mps 687 mmHg 58%
    05:00 +18°C° 0 mm 0 mps 687 mmHg 59%
    06:00 +18°C° 0 mm 0 mps 687 mmHg 60%
    07:00 +18°C° 0 mm 0 mps 687 mmHg 60%
    08:00 +20°C° 0 mm 0 mps 688 mmHg 54%
    09:00 +23°C° 0 mm 1 mps 688 mmHg 47%
    10:00 +25°C° 0 mm 1 mps 689 mmHg 41%
    11:00 +26°C° 0 mm 1 mps 689 mmHg 36%
    12:00 +27°C° 0 mm 1 mps 689 mmHg 30%
    13:00 +28°C° 0 mm 1 mps 688 mmHg 25%
    14:00 +28°C° 0 mm 2 mps 688 mmHg 23%
    15:00 +29°C° 0 mm 2 mps 688 mmHg 22%
    16:00 +29°C° 0 mm 2 mps 688 mmHg 21%
    17:00 +28°C° 0 mm 3 mps 688 mmHg 23%
    18:00 +27°C° 0 mm 3 mps 688 mmHg 25%
    19:00 +27°C° 0 mm 3 mps 688 mmHg 27%
    20:00 +26°C° 0 mm 3 mps 688 mmHg 33%
    21:00 +25°C° 0 mm 3 mps 689 mmHg 38%
    22:00 +24°C° 0 mm 2 mps 689 mmHg 43%
    23:00 +23°C° 0 mm 2 mps 689 mmHg 46%

    28 September, Thursday

    Time Temperature Precipitation Wind Pressure Humidity
    00:00 +21°C° 0 mm 2 mps 688 mmHg 50%
    01:00 +21°C° 0 mm 2 mps 688 mmHg 54%
    02:00 +21°C° 0 mm 1 mps 688 mmHg 57%
    03:00 +21°C° 0 mm 1 mps 688 mmHg 59%
    04:00 +20°C° 0 mm 1 mps 688 mmHg 62%
    05:00 +20°C° 0 mm 1 mps 688 mmHg 63%
    06:00 +20°C° 0 mm 1 mps 688 mmHg 64%
    07:00 +20°C° 0 mm 1 mps 688 mmHg 65%
    08:00 +21°C° 0 mm 1 mps 689 mmHg 59%
    09:00 +21°C° 0 mm 2 mps 689 mmHg 54%
    10:00 +23°C° 0 mm 2 mps 689 mmHg 49%
    11:00 +24°C° 0 mm 2 mps 689 mmHg 44%
    12:00 +25°C° 0 mm 2 mps 689 mmHg 40%
    13:00 +26°C° 0 mm 2 mps 689 mmHg 35%
    14:00 +26°C° 0 mm 3 mps 689 mmHg 34%
    15:00 +26°C° 0 mm 3 mps 689 mmHg 34%
    16:00 +26°C° 0 mm 3 mps 689 mmHg 33%
    17:00 +25°C° 0 mm 4 mps 689 mmHg 37%
    18:00 +23°C° 0 mm 4 mps 689 mmHg 41%
    19:00 +23°C° 0 mm 5 mps 689 mmHg 45%
    20:00 +22°C° 0 mm 5 mps 689 mmHg 51%
    21:00 +21°C° 0 mm 4 mps 689 mmHg 57%
    22:00 +19°C° 0 mm 4 mps 690 mmHg 63%
    23:00 +19°C° 0 mm 4 mps 689 mmHg 65%
    Show more